Location: Betra
(48.4113°N, 8.6634°E)
Time: 16:09:44
(UTC+00:00)

Cosmos 1850 Rocket - Pass Details

Date: 12 August 2024
Orbit: 751 x 783 km, 74.0° (Epoch: 17 September)

Event Time Altitude Azimuth Distance (km) Brightness Sun altitude
Rises 20:55:24 0° 325° (NW) 3,262 9.0 -18.2°
Reaches altitude 10° 20:58:19 10° 310° (NW) 2,335 7.7 -18.5°
Maximum altitude 21:02:08 21° 263° (W) 1,720 6.2 -18.9°
Drops below altitude 10° 21:05:58 10° 217° (SW) 2,333 6.3 -19.3°
Enters shadow 21:07:09 - 209° (SSW) 2,689 6.6 -19.4°
